Regional Weather Roundup
Issued by NWS Green Bay, WI

Home | Current Version | Previous Version | Text Only | Print | Product List | Glossary On
Versions: 1 2 3 4 5 6 7 8 9 10 11 12 13 14 15 16 17 18 19 20 21 22 23 24 25 26 27 28 29 30 31 32 33 34 35 36 37 38 39 40 41 42 43 44 45 46 47 48 49 50
000
ASUS43 KGRB 171100
RWRGRB

NORTH-CENTRAL AND NORTHEAST WISCONSIN REGIONAL WEATHER ROUNDUP
NATIONAL WEATHER SERVICE GREEN BAY WI
600 AM CDT THU AUG 17 2017

WIZ005-009-010>012-018-019-171200-
NORTH CENTRAL WISCONSIN

CITY           SKY/WX    TMP DP  RH WIND       PRES   REMARKS
IRONWOOD       CLOUDY    62  61  96 E12       29.64
MANITOWISH WTR NOT AVBL
ARBOR VITAE    NOT AVBL
EAGLE RIVER    NOT AVBL
LAND O LAKES   HVY RAIN  64  64  98 CALM      29.70F
RHINELANDER    CLOUDY    63  63 100 E6        29.66F FOG
PHILLIPS       CLOUDY    63  63 100 E5        29.62F
ANTIGO         NOT AVBL
TOMAHAWK       NOT AVBL
MERRILL        NOT AVBL
$$

WIZ013-073-171200-
NORTHEAST WISCONSIN

CITY           SKY/WX    TMP DP  RH WIND       PRES   REMARKS
IRON MOUNTAIN  CLOUDY    67  64  90 E9        29.68F
MARINETTE      CLOUDY    71  69  93 S12       29.68
$$

WIZ017-030-035>037-045-171200-
CENTRAL WISCONSIN

CITY           SKY/WX    TMP DP  RH WIND       PRES   REMARKS
MEDFORD        NOT AVBL
WAUSAU         CLOUDY    66  66 100 SE5       29.62F FOG
MOSINEE        FOG       66  66 100 SE5       29.65F VSB 1
MARSHFIELD     MOCLDY    69  67  93 S7        29.62S
WISC RAPIDS    CLOUDY    71  71 100 S7        29.64S
STEVENS POINT  NOT AVBL
WAUPACA        NOT AVBL
SHAWANO        CLOUDY    72  69  93 SE6       29.65F FOG
CLINTONVILLE   CLOUDY    70  68  94 SE7       29.65F FOG
WAUTOMA        CLOUDY    72  71  97 S8        29.66
$$

WIZ038-039-048-051-171200-
FOX VALLEY

CITY           SKY/WX    TMP DP  RH WIND       PRES   REMARKS
NWS GREEN BAY  LGT RAIN  72  72 100 S7        29.67F FOG
APPLETON       CLOUDY    72  72 100 S10       29.66F FOG
OSHKOSH        TSTM      72  69  90 S12       29.67
FOND DU LAC    HVY RAIN  71  68  90 S6        29.68  FOG
$$

WIZ022-050-052-171200-
EAST CENTRAL WISCONSIN

CITY           SKY/WX    TMP DP  RH WIND       PRES   REMARKS
EPHRAIM        NOT AVBL
WASHINGTON ISL NOT AVBL
STURGEON BAY   CLOUDY    70  69  97 S12       29.70  FOG
MANITOWOC      NOT AVBL
SHEBOYGAN      CLOUDY    73  73 100 S12       29.71  FOG
$$

LMZ563-521-522-541>543-171200-
LAKESHORE

STATION/POSITION TIME  TEMP    WIND        PRES    VSBY  WAVE
                       AIR SEA DIR/SP/G                  HT/PER
                 (UTC) (F)     (DEG/KT/KT) (MB)    (MI)  (FT/S)
SHEBOYGAN LKSHOR 1000   72     180/ 15/ 17 1005.2F
KEWAUNEE LKSHORE 1030   70     170/  9/ 11 1005.1S
NORTHPORT PIER   1040   70     140/ 19/ 26 1005.8F
N MID LAKE BUOY  0950   67 68  130/ 16/ 19 1007.5F         2/ 4
S GREEN BAY BUOY 1030   72 71  150/ 14/ 17 1004.9F
MENOMINEE LKSHOR 1030   71     160/ 13/ 17 1004.7F
$$




USA.gov is the U.S. government's official web portal to all federal, state and local government web resources and services.